Regional Weather Roundup
Issued by NWS

Home | Current Version | Previous Version | Graphics & Text | Print | Product List | Glossary On
Versions: 1 2 3 4 5 6 7 8 9 10 11 12 13 14 15 16 17 18 19 20 21 22 23 24 25 26 27 28 29 30 31 32 33 34 35 36 37 38 39 40 41 42 43 44 45 46 47 48 49 50
000
ASUS43 KTOP 251708
RWRKS

WEATHER ROUNDUP FOR KANSAS
NATIONAL WEATHER SERVICE GOODLAND KS
1200 PM CDT THU MAY 25 2017

NOTE:  "FAIR" INDICATES FEW OR NO CLOUDS BELOW 12,000 FEET WITH NO
SIGNIFICANT WEATHER AND/OR OBSTRUCTIONS TO VISIBILITY.

KSZ001>006-013>018-027>032-041>047-251800-
NORTHWEST KANSAS

CITY           SKY/WX    TMP DP  RH WIND       PRES   REMARKS
GOODLAND       SUNNY     75  50  41 NE7       29.52S
HAYS           SUNNY     69  52  54 S14       29.52F
HILL CITY      MOSUNNY   71  51  49 S9        29.51F
$$

KSZ061>065-074>080-084>089-251800-
SOUTHWEST KANSAS

CITY           SKY/WX    TMP DP  RH WIND       PRES   REMARKS
DODGE CITY     SUNNY     71  53  52 S8G20     29.56R
ELKHART          N/A    N/A N/A N/A MISG        N/A
GARDEN CITY    SUNNY     75  52  44 S7        29.53R
GREAT BEND     CLOUDY    67  53  61 S14       29.57R
LIBERAL        SUNNY     74  54  49 S9        29.54S
PRATT          PTSUNNY   62  48  60 S14G20    29.54F
$$

KSZ066>073-081>083-090>101-251800-
SOUTHEAST KANSAS

CITY           SKY/WX    TMP DP  RH WIND       PRES   REMARKS
CHANUTE        SUNNY     72  50  45 SE15G23   29.68F
COFFEYVILLE    SUNNY     73  54  51 S18G25    29.69F
HUTCHINSON     MOSUNNY   72  50  45 SE24G35   29.55S
MEDICINE LODGE   N/A     71  50  47 SE17G25   29.53F
NEWTON         MOSUNNY   68  49  50 S28G35    29.57F
PARSONS        SUNNY     72  49  44 SE13G20   29.69F
WICHITA INTL   MOSUNNY   71  51  49 S21G29    29.58F
WICHITA JABRA  SUNNY     70  50  49 S22G30    29.61F
WICHITA MCCONL CLOUDY    72  49  44 S20G26    29.61F
WINFIELD       SUNNY     72  52  49 SE18G25   29.63F
$$

KSZ007>012-019>026-033>040-048>060-102>105-251800-
NORTHEAST KANSAS

CITY           SKY/WX    TMP DP  RH WIND       PRES   REMARKS
CONCORDIA      SUNNY     67  50  54 S16G28    29.59R
EMPORIA        SUNNY     70  49  47 SE20G28   29.65F
LAWRENCE       SUNNY     72  50  45 S13       29.67F
MANHATTAN      SUNNY     73  48  41 S21       29.60F
MARYSVILLE     SUNNY     70  50  49 S15G23    29.61F
OLATHE IND     SUNNY     70  50  49 S14       29.69F
OLATHE EXE     SUNNY     68  51  54 S15G22    29.70F
SALINA         SUNNY     75  52  44 S20G26    29.57S
TOPEKA BILLARD SUNNY     71  52  50 SE18      29.65F
TOPEKA FORBES  SUNNY     72  51  47 S15G23    29.65F
$$



USA.gov is the U.S. government's official web portal to all federal, state and local government web resources and services.